N5TM-4 Weather Reports


Display with metric or nautical units.
time (UTC)temp
F
wind
direction
speed
MPH
gust
MPH
rain 1hr
in
rain 24hr
in
rain mn
in
humidity
%
barometer
mb
20260508091043 69 126 3.0 5.0 0.00 0.00 0.00 77 1012.6
20260508090544 69 28 1.0 7.0 0.00 0.00 0.00 77 1012.5
20260508090043 69 78 2.0 7.0 0.00 0.00 0.00 77 1012.5
20260508085541 69 56 3.0 7.0 0.00 0.00 0.00 76 1012.3
20260508085040 70 119 3.0 5.0 0.00 0.00 0.00 76 1012.4
20260508084539 70 82 1.0 5.0 0.00 0.00 0.00 76 1012.7
20260508084039 70 62 1.0 7.0 0.00 0.00 0.00 76 1013.0
20260508083538 70 46 1.0 7.0 0.00 0.00 0.00 76 1013.0
20260508083037 70 63 1.0 6.0 0.00 0.00 0.00 75 1013.2
20260508082537 70 15 3.0 6.0 0.00 0.00 0.00 75 1013.0
20260508082036 70 78 1.0 4.0 0.00 0.00 0.00 75 1012.9
20260508081536 70 32 1.0 4.0 0.00 0.00 0.00 75 1013.0
20260508081036 70 17 1.0 5.0 0.00 0.00 0.00 75 1013.0
20260508080535 70 5 2.0 8.0 0.00 0.00 0.00 75 1012.9
20260508080041 70 24 2.0 8.0 0.00 0.00 0.00 75 1012.8
20260508075534 70 87 1.0 4.0 0.00 0.00 0.00 75 1012.8
20260508075033 70 25 1.0 4.0 0.00 0.00 0.00 75 1013.0
20260508074533 70 37 1.0 5.0 0.00 0.00 0.00 75 1013.1
20260508074032 70 11 1.0 5.0 0.00 0.00 0.00 75 1013.2
20260508073533 70 51 1.0 6.0 0.00 0.00 0.00 75 1013.4
20260508073036 70 16 2.0 6.0 0.00 0.00 0.00 75 1013.4
20260508072534 70 15 2.0 5.0 0.00 0.00 0.00 75 1013.4
20260508072032 70 62 2.0 5.0 0.00 0.00 0.00 75 1013.3
20260508071534 70 350 2.0 5.0 0.00 0.00 0.00 75 1013.3
20260508071031 70 53 2.0 5.0 0.00 0.00 0.00 75 1013.3
20260508070531 70 53 1.0 5.0 0.00 0.00 0.00 75 1013.3
20260508070032 70 13 2.0 4.0 0.00 0.00 0.00 75 1013.3
20260508065532 70 19 1.0 3.0 0.00 0.00 0.00 75 1013.4
20260508065035 70 18 1.0 3.0 0.00 0.00 0.00 75 1013.6
20260508064538 70 18 0.0 3.0 0.00 0.00 0.00 75 1013.5
20260508064031 70 80 0.0 3.0 0.00 0.00 0.00 75 1013.5
20260508063531 70 80 0.0 2.0 0.00 0.00 0.00 75 1013.5
20260508063042 70 80 0.0 3.0 0.00 0.00 0.00 75 1013.4
20260508062533 70 80 0.0 3.0 0.00 0.00 0.00 75 1013.3
20260508062029 70 82 1.0 3.0 0.00 0.00 0.00 75 1013.2
20260508061531 70 54 0.0 3.0 0.00 0.00 0.00 74 1013.3
20260508061029 70 53 1.0 4.0 0.00 0.00 0.00 74 1013.2
20260508060529 70 88 1.0 3.0 0.00 0.00 0.00 74 1013.1
20260508060028 70 49 1.0 4.0 0.00 0.00 0.00 74 1013.4
20260508055527 70 49 0.0 4.0 0.00 0.00 0.00 74 1013.5
20260508055027 70 84 1.0 3.0 0.00 0.00 0.00 73 1013.4
20260508054526 70 85 1.0 6.0 0.00 0.00 0.00 73 1013.5
20260508054026 70 96 1.0 6.0 0.00 0.00 0.00 73 1013.3
20260508053524 71 93 1.0 4.0 0.00 0.00 0.00 73 1013.3
20260508053024 71 79 1.0 3.0 0.00 0.00 0.00 72 1013.4
20260508052527 71 80 0.0 3.0 0.00 0.00 0.00 72 1013.6
20260508052025 71 78 1.0 3.0 0.00 0.00 0.00 72 1013.4
20260508051522 71 57 1.0 5.0 0.00 0.00 0.00 72 1013.5
20260508051024 71 56 1.0 4.0 0.00 0.00 0.00 71 1013.4
20260508050522 71 10 2.0 4.0 0.00 0.00 0.00 71 1013.4
20260508050032 71 360 2.0 8.0 0.00 0.00 0.00 71 1013.4
20260508045521 71 360 2.0 8.0 0.00 0.00 0.00 71 1013.4
20260508045021 71 360 2.0 6.0 0.00 0.00 0.00 70 1013.5
20260508044521 71 38 2.0 5.0 0.00 0.00 0.00 70 1013.4
20260508043520 71 355 1.0 6.0 0.00 0.00 0.00 70 1013.4
20260508043020 71 335 3.0 6.0 0.00 0.00 0.00 70 1013.5
20260508042520 71 13 2.0 5.0 0.00 0.00 0.00 70 1013.7
20260508042024 71 22 1.0 4.0 0.00 0.00 0.00 70 1013.7
20260508041521 71 46 1.0 4.0 0.00 0.00 0.00 69 1013.6
20260508041020 71 48 1.0 4.0 0.00 0.00 0.00 69 1013.7
20260508040520 71 47 1.0 4.0 0.00 0.00 0.00 69 1013.7
20260508040028 71 360 2.0 5.0 0.00 0.00 0.00 69 1013.9
20260508035519 72 70 1.0 8.0 0.00 0.00 0.00 69 1013.4
20260508035019 71 150 2.0 9.0 0.00 0.00 0.00 69 1012.7
20260508034521 72 123 5.0 9.0 0.00 0.00 0.00 69 1012.7
20260508034017 72 146 4.0 9.0 0.00 0.00 0.00 69 1012.8
20260508033517 72 92 3.0 8.0 0.00 0.00 0.00 68 1013.1
20260508033017 72 60 2.0 8.0 0.00 0.00 0.00 68 1013.4
20260508032517 73 92 2.0 5.0 0.00 0.00 0.00 68 1013.7
20260508032017 73 93 2.0 6.0 0.00 0.00 0.00 68 1013.9
20260508031517 73 114 2.0 6.0 0.00 0.00 0.00 68 1013.9
20260508031017 73 355 1.0 4.0 0.00 0.00 0.00 68 1014.0
20260508030517 73 313 0.0 5.0 0.00 0.00 0.00 69 1014.0
20260508030017 73 351 1.0 5.0 0.00 0.00 0.00 69 1014.0
20260508025516 73 13 1.0 4.0 0.00 0.00 0.00 69 1014.0
20260508025020 73 47 1.0 3.0 0.00 0.00 0.00 69 1014.0
20260508024516 74 47 1.0 3.0 0.00 0.00 0.00 69 1014.0
20260508024016 74 48 1.0 3.0 0.00 0.00 0.00 68 1014.1
20260508023516 74 5 0.0 4.0 0.00 0.00 0.00 68 1014.2
20260508023015 74 54 0.0 5.0 0.00 0.00 0.00 68 1013.9
20260508022516 74 69 1.0 5.0 0.00 0.00 0.00 68 1013.7
20260508022015 74 88 1.0 6.0 0.00 0.00 0.00 68 1013.7
20260508021515 74 355 2.0 6.0 0.00 0.00 0.00 68 1013.8
20260508021018 74 61 1.0 3.0 0.00 0.00 0.00 68 1013.6
20260508020514 74 60 1.0 3.0 0.00 0.00 0.00 68 1013.7
20260508020022 74 60 1.0 3.0 0.00 0.00 0.00 68 1013.6
20260508015514 74 29 1.0 4.0 0.00 0.00 0.00 67 1013.7
20260508015014 74 26 0.0 4.0 0.00 0.00 0.00 67 1013.8
20260508014514 75 5 1.0 5.0 0.00 0.00 0.00 67 1013.7
20260508014014 75 355 1.0 5.0 0.00 0.00 0.00 67 1013.7
20260508013513 75 33 1.0 4.0 0.00 0.00 0.00 66 1013.7
20260508013014 75 59 0.0 6.0 0.00 0.00 0.00 66 1013.6
20260508012517 75 355 3.0 6.0 0.00 0.00 0.00 66 1013.6
20260508012014 75 68 1.0 4.0 0.00 0.00 0.00 66 1013.6
20260508011515 75 69 1.0 6.0 0.00 0.00 0.00 66 1013.5
20260508011013 75 108 2.0 8.0 0.00 0.00 0.00 66 1013.5
20260508010514 75 337 2.0 8.0 0.00 0.00 0.00 66 1013.5
20260508010013 76 55 2.0 6.0 0.00 0.00 0.00 65 1013.6
20260508005513 76 122 2.0 5.0 0.00 0.00 0.00 65 1013.9
20260508005013 76 355 3.0 5.0 0.00 0.00 0.00 65 1013.9
20260508004513 76 96 1.0 6.0 0.00 0.00 0.00 65 1013.9
20260508004012 76 38 2.0 9.0 0.00 0.00 0.00 64 1013.6
20260508003511 76 360 4.0 9.0 0.00 0.00 0.00 64 1013.5
20260508003011 76 347 3.0 8.0 0.00 0.00 0.00 63 1013.5
20260508002511 76 355 3.0 8.0 0.00 0.00 0.00 63 1013.6
20260508002011 76 40 2.0 10.0 0.00 0.00 0.00 64 1013.7
20260508001528 77 339 5.0 10.0 0.00 0.00 0.00 63 1013.6
20260508001011 77 11 3.0 11.0 0.00 0.00 0.00 63 1013.7
20260508000511 77 5 5.0 11.0 0.00 0.00 0.00 63 1013.7
20260508000010 77 325 4.0 13.0 0.00 0.00 0.00 63 1013.6
20260507235511 77 307 6.0 13.0 0.00 0.00 0.00 62 1013.8
20260507235010 78 20 4.0 13.0 0.00 0.00 0.00 62 1013.8
20260507234514 78 329 4.0 10.0 0.00 0.00 0.00 64 1013.7
20260507234052 78 323 1.0 7.0 0.00 0.00 0.00 66 1013.8
20260507233510 78 98 1.0 7.0 0.00 0.00 0.00 65 1013.7
20260507233015 78 61 2.0 7.0 0.00 0.00 0.00 65 1013.6
20260507232511 78 51 2.0 6.0 0.00 0.00 0.00 65 1013.5
20260507232009 78 29 2.0 9.0 0.00 0.00 0.00 64 1013.5
20260507231509 78 5 2.0 9.0 0.00 0.00 0.00 64 1013.4
20260507231009 78 137 3.0 8.0 0.00 0.00 0.00 64 1013.4
20260507230509 78 43 2.0 8.0 0.00 0.00 0.00 64 1013.5
20260507230009 78 92 2.0 7.0 0.00 0.00 0.00 64 1013.2
20260507225510 78 72 1.0 8.0 0.00 0.00 0.00 64 1013.2
20260507225009 79 76 3.0 8.0 0.00 0.00 0.00 64 1013.3
20260507224508 79 19 1.0 8.0 0.00 0.00 0.00 64 1013.3
20260507224010 79 34 1.0 8.0 0.00 0.00 0.00 64 1013.1
20260507223510 79 37 1.0 5.0 0.00 0.00 0.00 64 1013.0
20260507223008 78 42 2.0 10.0 0.00 0.00 0.00 64 1013.0
20260507222507 78 89 4.0 10.0 0.00 0.00 0.00 64 1013.0
20260507222007 79 117 3.0 6.0 0.00 0.00 0.00 63 1013.0
20260507221507 79 315 1.0 6.0 0.00 0.00 0.00 64 1013.1
20260507221007 79 332 2.0 11.0 0.00 0.00 0.00 63 1013.1
20260507220506 79 306 4.0 11.0 0.00 0.00 0.00 63 1013.1
20260507220016 79 16 3.0 6.0 0.00 0.00 0.00 62 1013.1
20260507215506 79 116 2.0 6.0 0.00 0.00 0.00 63 1013.3
20260507215006 79 119 1.0 6.0 0.00 0.00 0.00 64 1013.4
20260507214504 79 338 2.0 9.0 0.00 0.00 0.00 64 1013.4
20260507214003 78 348 1.0 9.0 0.00 0.00 0.00 63 1013.5
20260507213504 79 101 3.0 9.0 0.00 0.00 0.00 64 1013.5
20260507213003 79 339 4.0 9.0 0.00 0.00 0.00 63 1013.7
20260507212503 79 77 5.0 9.0 0.00 0.00 0.00 63 1013.7
20260507212002 79 61 1.0 8.0 0.00 0.00 0.00 64 1013.6
20260507211503 79 13 3.0 8.0 0.00 0.00 0.00 63 1013.7
20260507211002 79 70 3.0 8.0 0.00 0.00 0.00 63 1013.7
20260507210501 79 39 4.0 9.0 0.00 0.00 0.00 63 1013.9
20260507210003 79 360 3.0 9.0 0.00 0.00 0.00 63 1014.0
20260507205504 79 319 3.0 8.0 0.00 0.00 0.00 63 1014.0
20260507205001 79 19 2.0 8.0 0.00 0.00 0.00 64 1013.9
20260507204601 78 52 3.0 8.0 0.00 0.00 0.00 64 1014.0
20260507204059 78 344 2.0 8.0 0.00 0.00 0.00 64 1014.0
20260507203558 78 5 3.0 9.0 0.00 0.00 0.00 64 1014.1
20260507203059 78 355 4.0 9.0 0.00 0.00 0.00 64 1014.2
20260507202559 78 5 3.0 9.0 0.00 0.00 0.00 64 1014.2
20260507202056 77 338 4.0 10.0 0.00 0.00 0.00 64 1014.1
20260507201600 77 320 3.0 10.0 0.00 0.00 0.00 65 1014.2
20260507201056 77 94 4.0 11.0 0.00 0.00 0.00 64 1014.2
20260507200555 77 40 5.0 11.0 0.00 0.00 0.00 65 1014.3
20260507200108 77 103 5.0 10.0 0.00 0.00 0.00 64 1014.3
20260507195554 76 296 3.0 10.0 0.00 0.00 0.00 64 1014.3
20260507195054 77 5 5.0 10.0 0.00 0.00 0.00 64 1014.3
20260507194554 76 70 4.0 11.0 0.00 0.00 0.00 65 1014.4
20260507194053 76 327 3.0 11.0 0.00 0.00 0.00 65 1014.5
20260507193551 75 38 4.0 10.0 0.00 0.00 0.00 65 1014.5
20260507193053 75 338 5.0 12.0 0.00 0.00 0.00 66 1014.6
20260507192550 75 29 7.0 12.0 0.00 0.00 0.00 66 1014.8
20260507192051 75 314 5.0 10.0 0.00 0.00 0.00 68 1015.0
20260507191554 74 41 3.0 10.0 0.00 0.00 0.00 68 1015.1
20260507191048 74 5 3.0 10.0 0.00 0.00 0.00 68 1015.2
20260507190548 74 351 5.0 10.0 0.00 0.00 0.00 68 1015.3
20260507190053 73 355 2.0 10.0 0.00 0.00 0.00 69 1015.4
20260507185547 73 14 5.0 10.0 0.00 0.00 0.00 70 1015.6
20260507185047 72 22 1.0 8.0 0.00 0.00 0.00 70 1015.6
20260507184550 72 5 4.0 10.0 0.00 0.00 0.00 71 1015.6
20260507184047 71 338 3.0 12.0 0.00 0.00 0.00 70 1015.5
20260507183546 72 5 7.0 13.0 0.00 0.00 0.00 69 1015.6
20260507183046 72 313 8.0 13.0 0.00 0.00 0.00 68 1015.7
20260507182546 73 334 6.0 11.0 0.00 0.00 0.00 67 1015.7
20260507182045 73 325 6.0 12.0 0.00 0.00 0.00 67 1015.6
20260507181552 73 287 6.0 12.0 0.00 0.00 0.00 67 1015.6
20260507181046 73 343 5.0 13.0 0.00 0.00 0.00 67 1015.7
20260507180546 73 24 5.0 15.0 0.00 0.00 0.00 67 1015.7
20260507180045 74 325 6.0 15.0 0.00 0.00 0.00 66 1015.9
20260507175545 74 339 5.0 10.0 0.00 0.00 0.00 65 1015.9
20260507175044 74 350 6.0 11.0 0.00 0.00 0.00 67 1016.0
20260507174547 72 311 3.0 11.0 0.00 0.00 0.00 70 1016.0
20260507174042 72 50 4.0 10.0 0.00 0.00 0.00 69 1015.9
20260507173542 72 360 4.0 10.0 0.00 0.00 0.00 70 1016.0
20260507173040 70 328 5.0 10.0 0.00 0.00 0.00 72 1016.1
20260507172539 70 13 3.0 9.0 0.00 0.00 0.00 72 1016.3
20260507172037 70 27 3.0 12.0 0.00 0.00 0.00 72 1016.4
20260507171538 70 28 5.0 12.0 0.00 0.00 0.00 72 1016.4
20260507171036 69 337 2.0 10.0 0.00 0.00 0.00 74 1016.4
20260507170538 69 9 2.0 10.0 0.00 0.00 0.00 74 1016.6
20260507170044 68 30 2.0 9.0 0.00 0.00 0.00 74 1016.5
20260507165536 68 355 2.0 6.0 0.00 0.00 0.00 74 1016.6
20260507165035 68 348 3.0 6.0 0.00 0.00 0.00 74 1016.5
20260507164535 68 340 4.0 9.0 0.00 0.00 0.00 75 1016.5
20260507164036 68 350 4.0 10.0 0.00 0.00 0.00 75 1016.5
20260507163533 67 328 3.0 8.0 0.00 0.00 0.00 76 1016.4
20260507163033 67 53 4.0 8.0 0.00 0.00 0.00 75 1016.3
20260507162533 67 58 3.0 6.0 0.00 0.00 0.00 76 1016.2
20260507162033 67 338 2.0 10.0 0.00 0.00 0.00 76 1016.1
20260507161532 67 71 3.0 10.0 0.00 0.00 0.00 75 1016.2
20260507161034 67 340 3.0 12.0 0.00 0.00 0.00 76 1016.0
20260507160534 67 78 5.0 12.0 0.00 0.00 0.00 76 1015.9
20260507160034 67 5 4.0 11.0 0.00 0.00 0.00 76 1015.8
20260507155535 66 9 2.0 13.0 0.00 0.00 0.00 77 1015.9
20260507155032 66 93 4.0 13.0 0.00 0.00 0.00 77 1016.0
20260507154531 66 48 5.0 11.0 0.00 0.00 0.00 78 1016.0
20260507154031 66 360 2.0 11.0 0.00 0.00 0.00 78 1016.0
20260507153530 65 5 3.0 13.0 0.00 0.00 0.00 79 1016.0
20260507153031 65 22 5.0 13.0 0.00 0.00 0.00 78 1016.0
20260507152530 65 15 2.0 11.0 0.00 0.00 0.00 79 1016.1
20260507152034 65 11 3.0 9.0 0.00 0.00 0.00 79 1016.3
20260507151530 65 321 3.0 9.0 0.00 0.00 0.00 79 1016.3
20260507151029 65 23 4.0 9.0 0.00 0.00 0.00 80 1016.3
20260507150529 65 18 4.0 9.0 0.00 0.00 0.00 80 1016.4
20260507150033 64 11 3.0 9.0 0.00 0.00 0.00 80 1016.4
20260507145528 64 40 3.0 12.0 0.00 0.00 0.00 80 1016.4
20260507145031 65 360 6.0 12.0 0.00 0.00 0.00 79 1016.4
20260507144529 65 333 5.0 12.0 0.00 0.00 0.00 79 1016.4
20260507144027 65 346 4.0 12.0 0.00 0.00 0.00 80 1016.3
20260507143530 64 29 5.0 11.0 0.00 0.00 0.00 80 1016.2
20260507143028 64 20 5.0 11.0 0.00 0.00 0.00 82 1016.0
20260507142525 64 321 6.0 12.0 0.00 0.00 0.00 83 1015.7
20260507142025 64 350 5.0 12.0 0.00 0.00 0.00 83 1015.5
20260507141524 64 355 6.0 11.0 0.00 0.00 0.00 83 1015.8
20260507141023 64 360 4.0 10.0 0.00 0.00 0.00 83 1015.7
20260507140523 64 328 2.0 10.0 0.00 0.00 0.00 83 1015.4
20260507140022 64 297 5.0 13.0 0.00 0.00 0.00 83 1015.3
20260507135526 64 355 4.0 13.0 0.00 0.00 0.00 82 1015.2
20260507135021 64 37 2.0 11.0 0.00 0.00 0.00 82 1015.2
20260507134521 64 5 3.0 13.0 0.00 0.00 0.00 82 1015.2
20260507134022 64 9 6.0 13.0 0.00 0.00 0.00 82 1015.5
20260507133519 64 24 3.0 14.0 0.00 0.00 0.00 82 1015.5
20260507133020 64 21 7.0 16.0 0.00 0.00 0.00 82 1015.7
20260507132518 64 13 7.0 18.0 0.00 0.00 0.00 82 1015.9
20260507132018 64 290 7.0 18.0 0.00 0.00 0.00 82 1016.1
20260507131526 64 329 8.0 15.0 0.00 0.00 0.00 81 1016.0
20260507131016 65 315 5.0 12.0 0.00 0.00 0.00 81 1015.9
20260507130517 65 11 5.0 15.0 0.00 0.00 0.00 82 1016.0
20260507130015 65 348 7.0 15.0 0.00 0.00 0.00 82 1016.1
20260507125514 65 70 4.0 11.0 0.00 0.00 0.00 83 1015.9
20260507125013 65 5 7.0 11.0 0.00 0.00 0.00 83 1016.0
20260507124513 65 15 3.0 9.0 0.00 0.00 0.00 83 1015.8
20260507124016 65 355 4.0 10.0 0.00 0.00 0.00 83 1015.8
20260507123511 65 332 3.0 10.0 0.00 0.00 0.00 83 1015.7
20260507123010 65 333 3.0 10.0 0.00 0.00 0.00 83 1015.5
20260507122508 66 327 6.0 11.0 0.00 0.00 0.00 83 1015.3
20260507122010 66 360 5.0 11.0 0.00 0.00 0.00 83 1015.3
20260507121508 66 13 4.0 10.0 0.00 0.00 0.00 83 1015.1
20260507121006 66 317 2.0 10.0 0.00 0.00 0.00 82 1015.0
20260507120505 66 33 4.0 11.0 0.00 0.00 0.00 82 1014.9
20260507120017 66 23 5.0 11.0 0.00 0.00 0.00 82 1014.7
20260507115505 66 350 5.0 10.0 0.00 0.00 0.00 82 1014.7
20260507115003 66 19 2.0 10.0 0.00 0.00 0.00 82 1014.9
20260507114503 66 303 3.0 11.0 0.00 0.00 0.00 82 1014.7
20260507114001 66 360 4.0 11.0 0.00 0.00 0.00 82 1014.3
20260507113500 66 333 3.0 9.0 0.00 0.00 0.00 82 1014.2
20260507113000 66 329 2.0 9.0 0.00 0.00 0.00 82 1014.3
20260507112602 66 14 3.0 9.0 0.00 0.00 0.00 82 1014.2
20260507112103 66 360 3.0 8.0 0.00 0.00 0.00 82 1014.1
20260507111607 66 355 3.0 6.0 0.00 0.00 0.00 82 1014.0
20260507111058 66 30 2.0 9.0 0.00 0.00 0.00 82 1014.0
20260507110559 66 355 4.0 9.0 0.00 0.00 0.00 82 1013.9
20260507110110 66 349 2.0 6.0 0.00 0.00 0.00 82 1014.0
20260507105557 66 338 3.0 6.0 0.00 0.00 0.00 82 1014.0
20260507105057 66 348 3.0 8.0 0.00 0.00 0.00 82 1013.7
20260507104557 66 5 3.0 8.0 0.00 0.00 0.00 82 1013.8
20260507104056 66 5 1.0 8.0 0.00 0.00 0.00 82 1013.8
20260507103556 66 25 4.0 8.0 0.00 0.00 0.00 82 1013.8
20260507103056 66 22 2.0 6.0 0.00 0.00 0.00 82 1013.8
20260507102557 66 325 2.0 6.0 0.00 0.00 0.00 82 1013.9
20260507102057 66 360 2.0 9.0 0.00 0.00 0.00 82 1013.7
20260507101604 66 360 3.0 9.0 0.00 0.00 0.00 82 1013.9
20260507101054 66 360 3.0 9.0 0.00 0.00 0.00 82 1013.5
20260507100554 66 98 3.0 10.0 0.00 0.00 0.00 82 1013.5
20260507100054 66 25 3.0 10.0 0.00 0.00 0.00 82 1013.5
20260507095555 66 360 4.0 8.0 0.00 0.00 0.00 82 1013.5
20260507095056 66 55 1.0 8.0 0.00 0.00 0.00 82 1013.5
20260507094555 66 339 2.0 9.0 0.00 0.00 0.00 82 1013.3
20260507094053 66 348 3.0 10.0 0.00 0.00 0.00 82 1013.4
20260507093552 66 32 3.0 10.0 0.00 0.00 0.00 82 1013.2
20260507093056 66 336 3.0 9.0 0.00 0.00 0.00 82 1013.0
20260507092552 66 348 2.0 9.0 0.00 0.00 0.00 82 1012.8
20260507092052 66 5 2.0 10.0 0.00 0.00 0.00 82 1012.8
20260507091555 66 34 3.0 11.0 0.00 0.00 0.00 82 1012.7